Location: Beaufort Park
(39.1418°N, 76.9433°W)
Time: 00:21:37
(UTC+00:00)

Aureole 3 - Pass Details

Date: 29 October 2020
Orbit: 382 x 1231 km, 82.5° (Epoch: 03 December)

Event Time Altitude Azimuth Distance (km) Brightness Sun altitude
Rises 22:31:27 0° 171° (S) 2,440 6.7 -4.9°
Reaches altitude 10° 22:33:40 10° 163° (SSE) 1,498 5.5 -5.3°
Maximum altitude 22:36:36 37° 94° (E) 638 3.2 -5.9°
Drops below altitude 10° 22:39:23 10° 25° (NNE) 1,412 5.1 -6.4°
Sets 22:41:25 0° 17° (NNE) 2,275 6.2 -6.8°
